SCP
0 0 0 0 0 0 0 0 0 0 0 0 0 0 0 0 0 0 0 0 0 0 0 0 0 0 0 0 0 0 0 0 0 0 0 0 0 0 0 0 0 0 0
0 0 0 0 0 0 0 0 0 0 0 0 0 0 0 0 0 0 0 0 0 0 0 0 0 0 0 0 0 0 0 0 0 0 0 0 0 0 0 0 0 0 0
0 0 0 0 0 0 0 0 0 0 0 0 0 0 0 0 0 0 0 0 0 0 0 0 0 0 0 0 0 0 0 0 0 0 0 0 0 0 0 0 0 0 0
0 0 0 0 0 0 0 0 0 0 0 0 0 0 0 0 0 0 0 0 0 0 0 0 0 0 0 0 0 0 0 0 0 0 0 0 0 0 0 0 0 0 0
0 0 0 0 0 0 0 0 0 0 0 0 0 0 0 0 0 0 0 0 0 0 0 0 0 0 0 0 0 0 0 0 0 0 0 0 0 0 0 0 0 0 0
0 0 0 0 0 0 0 0 0 0 0 0 0 0 0 0 0 0 0 0 0 0 0 0 0 0 0 0 0 0 0 0 0 0 0 0 0 0 0 0 0 0 0
0 0 0 0 0 0 0 0 0 0 0 0 0 0 0 0 0 0 0 0 0 0 0 0 0 0 0 0 0 0 0 0 0 0 0 0 0 0 0 0 0 0 0
0 0 0 0 0 0 0 0 0 0 0 0 0 0 0 0 0 0 0 0 0 0 0 0 0 0 0 0 0 0 0 0 0 0 0 0 0 0 0 0 0 0 0
0 0 0 0 0 0 0 0 0 0 0 0 0 0 0 0 0 0 0 0 0 0 0 0 0 0 0 0 0 0 0 0 0 0 0 0 0 0 0 0 0 0 0
0 0 0 0 0 0 0 0 0 0 0 0 0 0 0 0 0 0 0 0 0 0 0 0 0 0 0 0 0 0 0 0 0 0 0 0 0 0 0 0 0 0 0
0 0 0 0 0 0 0 0 0 0 0 0 0 0 0 0 0 0 0 0 0 0 0 0 0 0 0 0 0 0 0 0 0 0 0 0 0 0 0 0 0 0 0
0 0 0 0 0 0 0 0 0 0 0 0 0 0 0 0 0 0 0 0 0 0 0 0 0 0 0 0 0 0 0 0 0 0 0 0 0 0 0 0 0 0 0
0 0 0 0 0 0 0 0 0 0 0 0 0 0 0 0 0 0 0 0 0 0 0 0 0 0 0 0 0 0 0 0 0 0 0 0 0 0 0 0 0 0 0
0 0 0 0 0 0 0 0 0 0 0 0 0 0 0 0 0 0 0 0 0 0 0 0 0 0 0 0 0 0 0 0 0 0 0 0 0 0 0 0 0 0 0
0 0 0 0 0 0 0 0 0 0 0 0 0 0 0 0 0 0 0 0 0 0 0 0 0 0 0 0 0 0 0 0 0 0 0 0 0 0 0 0 0 0 0
0 0 0 0 0 0 0 0 0 0 0 0 0 0 0 0 0 0 0 0 0 0 0 0 0 0 0 0 0 0 0 0 0 0 0 0 0 0 0 0 0 0 0
0 0 0 0 0 0 0 0 0 0 0 0 0 0 0 0 0 0 0 0 0 0 0 0 0 0 0 0 0 0 0 0 0 0 0 0 0 0 0 0 0 0 0
0 0 0 0 0 0 0 0 0 0 0 0 0 0 0 0 0 0 0 0 0 0 0 0 0 0 0 0 0 0 0 0 0 0 0 0 0 0 0 0 0 0 0
0 0 0 0 0 0 0 0 0 0 0 0 0 0 0 0 0 0 0 0 0 0 0 0 0 0 0 0 0 0 0 0 0 0 0 0 0 0 0 0 0 0 0
0 0 0 0 0 0 0 0 0 0 0 0 0 0 0 0 0 0 0 0 0 0 0 0 0 0 0 0 0 0 0 0 0 0 0 0 0 0 0 0 0 0 0
0 0 0 0 0 0 0 0 0 0 0 0 0 0 0 0 0 0 0 0 0 0 0 0 0 0 0 0 0 0 0 0 0 0 0 0 0 0 0 0 0 0 0
0 0 0 0 0 0 0 0 0 0 0 0 0 0 0 0 0 0 0 0 0 0 0 0 0 0 0 0 0 0 0 0 0 0 0 0 0 0 0 0 0 0 0
0 0 0 0 0 0 0 0 0 0 0 0 0 0 0 0 0 0 0 0 0 0 0 0 0 0 0 0 0 0 0 0 0 0 0 0 0 0 0 0 0 0 0
0 0 0 0 0 0 0 0 0 0 0 0 0 0 0 0 0 0 0 0 0 0 0 0 0 0 0 0 0 0 0 0 0 0 0 0 0 0 0 0 0 0 0
0 0 0 0 0 0 0 0 0 0 0 0 0 0 0 0 0 0 0 0 0 0 0 0 0 0 0 0 0 0 0 0 0 0 0 0 0 0 0 0 0 0 0
0 0 0 0 0 0 0 0 0 0 0 0 0 0 0 0 0 0 0 0 0 0 0 0 0 0 0 0 0 0 0 0 0 0 0 0 0 0 0 0 0 0 0
Wind_Speed_500mb
40 43 46 47 49 50 52 54 56 58 59 60 61 62 63 65 67 69 69 70 71 70 68 67 65 62 61 62 62 65 67 63 66 93 96 102 105 98 89 93 71 77 80
36 37 40 43 47 51 52 54 56 58 60 62 63 65 65 65 67 68 69 67 67 67 65 65 66 69 66 65 62 61 58 55 52 68 79 81 81 80 79 81 81 72 74
42 44 45 46 47 48 50 52 53 56 58 59 61 62 62 61 66 65 66 66 65 64 63 62 61 64 63 63 62 59 58 56 52 51 63 62 63 61 67 64 64 60 64
46 46 45 46 46 47 48 50 52 53 55 57 57 59 60 58 66 66 69 69 65 61 59 57 53 57 58 58 58 61 60 57 51 49 48 51 52 55 51 54 52 48 47
45 46 47 48 49 50 51 52 52 51 51 52 53 54 54 54 61 65 69 68 62 59 61 59 53 46 55 51 49 47 53 56 54 50 46 50 49 53 52 50 51 47 41
50 50 52 53 54 55 54 54 55 53 52 52 51 53 54 52 56 61 63 62 59 53 56 59 62 52 58 51 42 31 41 45 48 46 40 42 40 43 43 44 44 44 36
44 45 47 48 48 48 47 46 47 47 47 47 47 49 50 50 53 56 61 59 56 50 47 51 59 56 53 56 50 35 27 39 38 37 36 34 41 44 45 43 39 36 33
44 45 46 43 40 40 40 42 43 45 47 47 47 46 47 46 49 52 55 55 52 49 45 45 55 53 48 52 55 43 32 39 33 30 24 31 37 44 40 35 36 34 23
41 39 34 34 36 39 43 46 48 51 52 52 52 53 52 50 50 49 51 55 56 54 48 42 44 43 49 44 55 49 43 40 33 27 24 29 34 34 35 31 29 34 25
34 28 25 26 29 32 37 43 48 51 53 55 55 54 55 55 52 51 43 51 54 54 54 47 45 43 45 43 44 45 44 44 38 33 29 29 31 31 33 33 33 32 30
22 19 20 23 27 33 39 45 50 55 57 57 59 59 57 56 56 51 40 46 50 53 56 54 49 45 44 39 36 37 37 40 35 32 29 26 26 28 30 29 29 30 31
18 18 20 26 33 39 44 49 52 57 60 61 62 62 59 57 56 53 40 39 44 52 52 55 51 44 41 37 37 36 35 34 32 30 31 32 33 33 33 31 30 27 25
21 22 27 32 35 41 49 54 58 58 60 63 63 64 64 58 58 53 50 42 45 48 58 49 46 41 39 38 36 35 34 33 33 34 36 35 35 34 33 32 30 31 28
25 28 34 37 41 47 52 55 58 59 60 61 63 64 64 63 59 53 50 52 52 57 61 55 44 39 36 36 33 32 32 33 35 37 38 37 37 37 39 40 42 42 41
31 35 39 43 49 54 56 58 60 58 55 56 59 59 61 65 60 50 49 50 50 52 54 49 42 41 38 36 34 33 33 35 37 38 40 41 41 42 42 42 42 41 40
36 40 42 47 53 58 63 67 61 59 55 50 51 46 50 49 49 46 46 44 45 45 48 46 44 43 42 42 42 42 41 42 42 42 43 44 45 45 47 45 44 44 46
43 45 46 50 54 59 62 67 72 63 58 51 44 46 44 45 43 44 44 41 47 43 45 45 45 45 45 46 46 47 48 46 45 44 45 45 46 46 47 48 49 50 51
47 47 49 51 56 60 62 61 60 63 67 65 50 43 45 44 45 46 39 41 44 41 44 46 46 46 46 47 48 50 50 49 48 48 47 46 46 48 50 50 51 53 54
47 48 50 54 56 59 58 57 57 59 60 62 60 50 44 44 46 43 39 47 48 46 45 46 47 48 49 49 50 51 52 52 52 51 50 49 48 49 51 50 52 52 55
46 48 52 55 57 56 53 52 52 53 54 55 55 53 52 50 47 45 45 48 48 48 49 49 48 49 49 50 51 51 53 52 50 49 50 49 47 47 50 53 53 56 56
45 47 51 53 52 48 47 47 48 49 50 52 50 47 47 45 50 49 48 45 46 47 48 48 48 47 47 49 50 52 53 53 52 51 52 51 50 51 51 52 54 55 57
44 46 49 49 46 44 45 45 45 47 47 50 50 46 45 46 47 47 47 46 44 44 46 48 49 48 47 49 52 54 55 54 53 53 54 54 54 54 54 55 56 56 62
44 45 46 45 44 44 43 44 46 47 49 49 50 50 48 47 48 48 49 49 49 48 46 48 51 51 48 48 49 53 57 57 57 56 57 57 56 55 54 58 57 62 67
44 45 44 42 42 43 43 42 43 45 47 49 50 50 49 49 50 50 50 51 51 50 48 48 49 50 50 49 48 48 51 53 55 56 57 59 59 56 57 59 59 64 73
43 43 42 42 42 42 42 42 43 44 46 48 50 51 52 53 53 53 53 54 55 56 54 52 51 52 52 52 50 50 50 51 53 53 55 57 56 53 56 57 60 70 77
43 41 40 40 41 42 43 44 44 46 49 50 52 54 57 59 59 59 59 60 61 60 60 60 58 57 56 56 54 53 52 52 52 50 52 54 52 53 55 59 69 81 76
Wind_Direction_500mb
354 350 347 344 342 339 337 335 334 333 331 330 329 328 326 325 321 321 320 319 318 318 318 317 314 312 309 308 306 305 305 309 306 295 294 297 296 296 299 287 300 288 290
341 339 338 337 336 335 333 333 331 329 329 329 328 328 327 326 322 323 322 322 323 323 322 319 317 313 314 312 313 313 313 315 315 311 305 309 308 305 300 299 287 291 285
347 345 343 342 340 339 338 337 335 333 331 328 327 326 326 326 321 322 322 324 325 325 324 322 320 316 317 317 317 316 317 318 324 323 316 317 314 312 308 306 304 299 294
343 342 342 342 342 340 338 336 333 331 329 327 326 325 325 327 321 323 322 327 328 325 323 320 319 320 320 323 322 322 323 323 328 328 326 323 326 329 330 325 318 315 313
338 338 339 340 339 337 336 335 335 334 333 330 327 325 325 328 324 326 326 331 329 328 325 322 322 317 312 319 320 327 324 326 331 334 333 331 331 331 339 338 332 329 322
335 336 337 337 338 339 339 339 338 337 336 333 331 330 331 331 326 328 329 333 332 329 325 325 326 327 326 328 326 325 324 327 333 336 337 335 334 329 331 334 330 336 340
328 329 331 334 336 339 341 341 343 344 342 340 339 337 337 337 332 334 334 338 337 335 333 332 329 334 338 338 338 334 326 322 329 334 341 339 334 334 334 330 325 323 318
329 330 332 336 343 350 354 355 355 355 352 350 347 344 341 340 335 334 332 338 338 337 336 332 329 335 345 343 338 340 330 328 337 343 342 326 329 328 334 335 326 323 332
324 330 339 347 355 357 356 354 351 348 346 343 340 338 335 334 332 331 332 334 335 334 335 331 329 335 341 344 337 344 343 340 343 341 333 331 333 339 345 344 348 354 357
321 328 337 346 349 348 347 345 342 338 336 333 330 330 329 327 328 327 331 331 332 332 331 328 326 332 335 342 337 341 342 336 342 345 345 349 350 354 357 2 3 3 360
312 318 328 335 337 338 339 337 334 332 329 328 326 325 325 324 324 327 331 329 332 327 328 328 328 329 332 334 329 340 336 331 339 341 346 351 352 354 357 360 0 354 347
296 306 319 326 330 333 332 331 329 326 325 324 322 321 321 319 320 323 323 325 323 321 323 322 322 324 326 326 331 334 335 334 336 343 348 353 355 356 356 355 352 348 341
293 306 315 320 324 326 327 326 327 326 324 323 321 320 319 317 319 320 319 322 317 318 319 319 321 319 322 323 328 329 329 331 338 342 348 350 350 347 344 340 341 339 340
292 302 311 315 319 322 323 324 324 325 322 320 319 318 317 317 319 321 324 322 321 317 317 320 319 319 320 321 324 327 330 334 338 339 340 338 337 338 340 340 339 338 335
293 302 308 313 319 321 323 325 325 325 323 320 318 317 315 313 320 321 315 316 315 313 311 315 318 320 323 324 325 328 329 329 331 333 333 332 333 334 334 335 335 334 333
298 304 309 313 317 321 323 323 323 322 322 319 315 310 310 306 313 313 314 315 312 315 311 319 321 322 324 324 325 325 327 328 329 330 329 330 330 331 330 331 331 330 329
302 305 308 313 317 319 321 322 322 323 323 326 322 313 310 312 312 315 316 315 303 316 314 318 318 320 321 321 322 322 323 325 326 325 325 326 327 326 326 327 327 327 327
301 303 307 312 317 320 320 321 321 322 324 327 331 325 320 316 315 318 321 306 314 312 314 316 319 320 320 320 320 320 320 321 322 323 323 323 323 323 324 327 327 327 327
300 304 309 315 317 318 319 319 321 322 323 324 326 328 322 317 315 317 311 314 316 317 317 316 317 318 318 318 318 317 317 319 321 321 322 322 324 323 322 324 324 325 325
297 303 308 313 316 316 316 317 319 321 321 324 327 329 327 321 323 326 321 318 317 316 317 316 317 317 318 318 318 318 318 319 320 320 319 318 319 319 320 321 323 323 324
297 303 308 311 313 314 315 317 318 320 322 323 326 329 328 320 323 322 321 320 319 319 320 319 319 320 319 318 317 317 317 319 321 320 318 318 319 318 319 319 320 320 321
297 303 307 310 312 314 315 317 318 318 319 320 323 325 325 323 322 323 323 323 321 320 320 318 318 319 320 318 318 317 317 319 320 318 317 316 316 316 317 318 319 321 322
296 302 307 310 312 315 317 317 317 318 319 320 321 321 323 323 322 322 321 321 320 319 317 315 315 316 316 313 313 313 314 316 317 316 315 313 313 315 316 318 319 320 322
298 305 309 312 314 314 314 316 316 318 318 319 320 321 323 323 323 323 322 321 321 320 320 318 317 317 317 316 315 315 313 314 312 312 311 310 311 314 315 316 318 320 321
301 305 308 311 312 312 314 317 318 317 317 318 319 319 319 319 319 318 318 316 315 315 315 314 313 313 313 312 313 313 313 313 311 309 306 304 306 310 314 315 317 319 321
300 303 306 309 310 311 314 316 317 317 317 316 316 316 316 315 315 315 315 314 312 312 311 310 310 310 308 308 309 309 309 310 310 311 308 306 307 313 317 318 320 322 323
Wind_Speed_850mb
40 43 46 47 49 50 52 54 56 58 59 60 61 62 63 65 67 69 69 70 71 70 68 67 65 62 61 62 62 65 67 63 66 93 96 102 105 98 89 93 71 77 80
36 37 40 43 47 51 52 54 56 58 60 62 63 65 65 65 67 68 69 67 67 67 65 65 66 69 66 65 62 61 58 55 52 68 79 81 81 80 79 81 81 72 74
42 44 45 46 47 48 50 52 53 56 58 59 61 62 62 61 66 65 66 66 65 64 63 62 61 64 63 63 62 59 58 56 52 51 63 62 63 61 67 64 64 60 64
46 46 45 46 46 47 48 50 52 53 55 57 57 59 60 58 66 66 69 69 65 61 59 57 53 57 58 58 58 61 60 57 51 49 48 51 52 55 51 54 52 48 47
45 46 47 48 49 50 51 52 52 51 51 52 53 54 54 54 61 65 69 68 62 59 61 59 53 46 55 51 49 47 53 56 54 50 46 50 49 53 52 50 51 47 41
50 50 52 53 54 55 54 54 55 53 52 52 51 53 54 52 56 61 63 62 59 53 56 59 62 52 58 51 42 31 41 45 48 46 40 42 40 43 43 44 44 44 36
44 45 47 48 48 48 47 46 47 47 47 47 47 49 50 50 53 56 61 59 56 50 47 51 59 56 53 56 50 35 27 39 38 37 36 34 41 44 45 43 39 36 33
44 45 46 43 40 40 40 42 43 45 47 47 47 46 47 46 49 52 55 55 52 49 45 45 55 53 48 52 55 43 32 39 33 30 24 31 37 44 40 35 36 34 23
41 39 34 34 36 39 43 46 48 51 52 52 52 53 52 50 50 49 51 55 56 54 48 42 44 43 49 44 55 49 43 40 33 27 24 29 34 34 35 31 29 34 25
34 28 25 26 29 32 37 43 48 51 53 55 55 54 55 55 52 51 43 51 54 54 54 47 45 43 45 43 44 45 44 44 38 33 29 29 31 31 33 33 33 32 30
22 19 20 23 27 33 39 45 50 55 57 57 59 59 57 56 56 51 40 46 50 53 56 54 49 45 44 39 36 37 37 40 35 32 29 26 26 28 30 29 29 30 31
18 18 20 26 33 39 44 49 52 57 60 61 62 62 59 57 56 53 40 39 44 52 52 55 51 44 41 37 37 36 35 34 32 30 31 32 33 33 33 31 30 27 25
21 22 27 32 35 41 49 54 58 58 60 63 63 64 64 58 58 53 50 42 45 48 58 49 46 41 39 38 36 35 34 33 33 34 36 35 35 34 33 32 30 31 28
25 28 34 37 41 47 52 55 58 59 60 61 63 64 64 63 59 53 50 52 52 57 61 55 44 39 36 36 33 32 32 33 35 37 38 37 37 37 39 40 42 42 41
31 35 39 43 49 54 56 58 60 58 55 56 59 59 61 65 60 50 49 50 50 52 54 49 42 41 38 36 34 33 33 35 37 38 40 41 41 42 42 42 42 41 40
36 40 42 47 53 58 63 67 61 59 55 50 51 46 50 49 49 46 46 44 45 45 48 46 44 43 42 42 42 42 41 42 42 42 43 44 45 45 47 45 44 44 46
43 45 46 50 54 59 62 67 72 63 58 51 44 46 44 45 43 44 44 41 47 43 45 45 45 45 45 46 46 47 48 46 45 44 45 45 46 46 47 48 49 50 51
47 47 49 51 56 60 62 61 60 63 67 65 50 43 45 44 45 46 39 41 44 41 44 46 46 46 46 47 48 50 50 49 48 48 47 46 46 48 50 50 51 53 54
47 48 50 54 56 59 58 57 57 59 60 62 60 50 44 44 46 43 39 47 48 46 45 46 47 48 49 49 50 51 52 52 52 51 50 49 48 49 51 50 52 52 55
46 48 52 55 57 56 53 52 52 53 54 55 55 53 52 50 47 45 45 48 48 48 49 49 48 49 49 50 51 51 53 52 50 49 50 49 47 47 50 53 53 56 56
45 47 51 53 52 48 47 47 48 49 50 52 50 47 47 45 50 49 48 45 46 47 48 48 48 47 47 49 50 52 53 53 52 51 52 51 50 51 51 52 54 55 57
44 46 49 49 46 44 45 45 45 47 47 50 50 46 45 46 47 47 47 46 44 44 46 48 49 48 47 49 52 54 55 54 53 53 54 54 54 54 54 55 56 56 62
44 45 46 45 44 44 43 44 46 47 49 49 50 50 48 47 48 48 49 49 49 48 46 48 51 51 48 48 49 53 57 57 57 56 57 57 56 55 54 58 57 62 67
44 45 44 42 42 43 43 42 43 45 47 49 50 50 49 49 50 50 50 51 51 50 48 48 49 50 50 49 48 48 51 53 55 56 57 59 59 56 57 59 59 64 73
43 43 42 42 42 42 42 42 43 44 46 48 50 51 52 53 53 53 53 54 55 56 54 52 51 52 52 52 50 50 50 51 53 53 55 57 56 53 56 57 60 70 77
43 41 40 40 41 42 43 44 44 46 49 50 52 54 57 59 59 59 59 60 61 60 60 60 58 57 56 56 54 53 52 52 52 50 52 54 52 53 55 59 69 81 76
Wind_Direction_850mb
354 350 347 344 342 339 337 335 334 333 331 330 329 328 326 325 321 321 320 319 318 318 318 317 314 312 309 308 306 305 305 309 306 295 294 297 296 296 299 287 300 288 290
341 339 338 337 336 335 333 333 331 329 329 329 328 328 327 326 322 323 322 322 323 323 322 319 317 313 314 312 313 313 313 315 315 311 305 309 308 305 300 299 287 291 285
347 345 343 342 340 339 338 337 335 333 331 328 327 326 326 326 321 322 322 324 325 325 324 322 320 316 317 317 317 316 317 318 324 323 316 317 314 312 308 306 304 299 294
343 342 342 342 342 340 338 336 333 331 329 327 326 325 325 327 321 323 322 327 328 325 323 320 319 320 320 323 322 322 323 323 328 328 326 323 326 329 330 325 318 315 313
338 338 339 340 339 337 336 335 335 334 333 330 327 325 325 328 324 326 326 331 329 328 325 322 322 317 312 319 320 327 324 326 331 334 333 331 331 331 339 338 332 329 322
335 336 337 337 338 339 339 339 338 337 336 333 331 330 331 331 326 328 329 333 332 329 325 325 326 327 326 328 326 325 324 327 333 336 337 335 334 329 331 334 330 336 340
328 329 331 334 336 339 341 341 343 344 342 340 339 337 337 337 332 334 334 338 337 335 333 332 329 334 338 338 338 334 326 322 329 334 341 339 334 334 334 330 325 323 318
329 330 332 336 343 350 354 355 355 355 352 350 347 344 341 340 335 334 332 338 338 337 336 332 329 335 345 343 338 340 330 328 337 343 342 326 329 328 334 335 326 323 332
324 330 339 347 355 357 356 354 351 348 346 343 340 338 335 334 332 331 332 334 335 334 335 331 329 335 341 344 337 344 343 340 343 341 333 331 333 339 345 344 348 354 357
321 328 337 346 349 348 347 345 342 338 336 333 330 330 329 327 328 327 331 331 332 332 331 328 326 332 335 342 337 341 342 336 342 345 345 349 350 354 357 2 3 3 360
312 318 328 335 337 338 339 337 334 332 329 328 326 325 325 324 324 327 331 329 332 327 328 328 328 329 332 334 329 340 336 331 339 341 346 351 352 354 357 360 0 354 347
296 306 319 326 330 333 332 331 329 326 325 324 322 321 321 319 320 323 323 325 323 321 323 322 322 324 326 326 331 334 335 334 336 343 348 353 355 356 356 355 352 348 341
293 306 315 320 324 326 327 326 327 326 324 323 321 320 319 317 319 320 319 322 317 318 319 319 321 319 322 323 328 329 329 331 338 342 348 350 350 347 344 340 341 339 340
292 302 311 315 319 322 323 324 324 325 322 320 319 318 317 317 319 321 324 322 321 317 317 320 319 319 320 321 324 327 330 334 338 339 340 338 337 338 340 340 339 338 335
293 302 308 313 319 321 323 325 325 325 323 320 318 317 315 313 320 321 315 316 315 313 311 315 318 320 323 324 325 328 329 329 331 333 333 332 333 334 334 335 335 334 333
298 304 309 313 317 321 323 323 323 322 322 319 315 310 310 306 313 313 314 315 312 315 311 319 321 322 324 324 325 325 327 328 329 330 329 330 330 331 330 331 331 330 329
302 305 308 313 317 319 321 322 322 323 323 326 322 313 310 312 312 315 316 315 303 316 314 318 318 320 321 321 322 322 323 325 326 325 325 326 327 326 326 327 327 327 327
301 303 307 312 317 320 320 321 321 322 324 327 331 325 320 316 315 318 321 306 314 312 314 316 319 320 320 320 320 320 320 321 322 323 323 323 323 323 324 327 327 327 327
300 304 309 315 317 318 319 319 321 322 323 324 326 328 322 317 315 317 311 314 316 317 317 316 317 318 318 318 318 317 317 319 321 321 322 322 324 323 322 324 324 325 325
297 303 308 313 316 316 316 317 319 321 321 324 327 329 327 321 323 326 321 318 317 316 317 316 317 317 318 318 318 318 318 319 320 320 319 318 319 319 320 321 323 323 324
297 303 308 311 313 314 315 317 318 320 322 323 326 329 328 320 323 322 321 320 319 319 320 319 319 320 319 318 317 317 317 319 321 320 318 318 319 318 319 319 320 320 321
297 303 307 310 312 314 315 317 318 318 319 320 323 325 325 323 322 323 323 323 321 320 320 318 318 319 320 318 318 317 317 319 320 318 317 316 316 316 317 318 319 321 322
296 302 307 310 312 315 317 317 317 318 319 320 321 321 323 323 322 322 321 321 320 319 317 315 315 316 316 313 313 313 314 316 317 316 315 313 313 315 316 318 319 320 322
298 305 309 312 314 314 314 316 316 318 318 319 320 321 323 323 323 323 322 321 321 320 320 318 317 317 317 316 315 315 313 314 312 312 311 310 311 314 315 316 318 320 321
301 305 308 311 312 312 314 317 318 317 317 318 319 319 319 319 319 318 318 316 315 315 315 314 313 313 313 312 313 313 313 313 311 309 306 304 306 310 314 315 317 319 321
300 303 306 309 310 311 314 316 317 317 317 316 316 316 316 315 315 315 315 314 312 312 311 310 310 310 308 308 309 309 309 310 310 311 308 306 307 313 317 318 320 322 323